Montreal Mirabel, Quebec

8:47 AM EDT on September 30, 2016 (GMT -0400)
Montreal International (Mirabel)

Weather History for CYMX - January, 2014

Change the Weather History Date:

Wednesday, January 29, 2014

  Actual Average Record
Temperature  
Mean Temperature 8 °F -  
Max Temperature 12 °F 19 °F 32 °F (2012)
Min Temperature 3 °F 3 °F -11 °F (2007)
Degree Days  
Heating Degree Days 58    
Moisture  
Dew Point -1 °F    
Average Humidity 67    
Maximum Humidity 79    
Minimum Humidity 61    
Precipitation  
Precipitation 0.00 in - - ()
Sea Level Pressure  
Sea Level Pressure 30.00 in    
Wind  
Wind Speed 10 mph ()    
Max Wind Speed 18 mph    
Max Gust Speed 30 mph    
Visibility 6.4 miles    
Events Snow    
Averages and records for this station are not official NWS values.
T = Trace of Precipitation, MM = Missing Value Source: Averaged Metar Reports

Daily Weather History Graph

Daily Weather History Graph

Search for Another Location

Airport or City:

Trip Planner

Search our weather history database for the weather conditions in past years. The results will help you decide how hot, cold, wet, or windy it might be!

Date:

Astronomy

Jan. 29, 2014 Rise Set
Actual Time 7:21 AM EST 4:58 PM EST
Civil Twilight 6:49 AM EST 5:30 PM EST
Nautical Twilight 6:13 AM EST 6:05 PM EST
Astronomical Twilight 5:38 AM EST 6:40 PM EST
Moon 5:56 AM EST (1/29) 3:54 PM EST (1/29)
Length of Visible Light 10h 40m
Length of Day
9h 36m
Waning Crescent, 2% of the Moon is Illuminated
Jan 29
Waning Crescent
Jan 30
New
Feb 6
First Quarter
Feb 14
Full
Feb 22
Last Quarter

Hourly Weather History & Observations

Time (EST) Temp. Windchill Dew Point Humidity Pressure Visibility Wind Dir Wind Speed Gust Speed Precip Events Conditions
12:00 AM 6.8 °F -10.0 °F -0.4 °F 72% 30.12 in 3.0 mi SW 13.8 mph 21.9 mph N/A Snow Light Snow
1:00 AM 6.8 °F -5.9 °F -2.2 °F 67% 30.10 in 4.0 mi SSW 8.1 mph 17.3 mph N/A Snow Light Snow
2:00 AM 6.8 °F -9.3 °F -4.0 °F 61% 30.09 in 6.0 mi SSW 12.7 mph 20.7 mph N/A Snow Light Snow
3:00 AM 6.8 °F -7.8 °F -4.0 °F 61% 30.08 in 25.0 mi SSW 10.4 mph 19.6 mph N/A Snow Light Snow
4:00 AM 5.0 °F -9.1 °F -5.8 °F 61% 30.06 in 25.0 mi SSW 9.2 mph - N/A   Overcast
4:54 AM 5.0 °F -9.1 °F -4.0 °F 66% 30.04 in 10.0 mi SSW 9.2 mph - N/A Snow Light Snow
5:00 AM 5.0 °F -10.8 °F -4.0 °F 66% 30.04 in 10.0 mi SSW 11.5 mph - N/A Snow Light Snow
6:00 AM 3.2 °F -13.1 °F -4.0 °F 72% 30.02 in 15.0 mi SSW 11.5 mph - N/A   Scattered Clouds
7:00 AM 5.0 °F -11.6 °F -2.2 °F 72% 30.01 in 25.0 mi SSW 12.7 mph 18.4 mph N/A   Mostly Cloudy
7:15 AM 5.0 °F -11.6 °F -2.2 °F 72% 30.01 in 6.0 mi South 12.7 mph - N/A Snow Light Snow
8:00 AM 5.0 °F -10.0 °F -0.4 °F 78% 30.00 in 5.0 mi SSW 10.4 mph - N/A Snow Light Snow
9:00 AM 6.8 °F -8.6 °F -2.2 °F 67% 29.99 in 5.0 mi SSW 11.5 mph - N/A Snow Light Snow
10:00 AM 6.8 °F -12.4 °F -2.2 °F 67% 29.98 in 8.0 mi SSW 18.4 mph 25.3 mph N/A Snow Light Snow
11:00 AM 8.6 °F -7.0 °F -2.2 °F 62% 29.96 in 25.0 mi SW 12.7 mph 27.6 mph N/A Snow Light Snow
12:00 PM 10.4 °F -2.4 °F -0.4 °F 62% 29.93 in 10.0 mi SW 9.2 mph - N/A Snow Light Snow
1:00 PM 10.4 °F -3.3 °F 1.4 °F 67% 29.90 in 3.0 mi SW 10.4 mph 20.7 mph N/A Snow Light Snow
2:00 PM 12.2 °F -3.1 °F 3.2 °F 67% 29.88 in 2.5 mi SW 13.8 mph 21.9 mph N/A Snow Light Snow
3:00 PM 12.2 °F -3.7 °F 3.2 °F 67% 29.88 in 2.0 mi SW 15.0 mph 29.9 mph N/A Snow Light Snow
4:00 PM 12.2 °F -0.2 °F 5.0 °F 73% 29.92 in 1.5 mi SW 9.2 mph - N/A Snow Light Snow
5:00 PM 12.2 °F -3.1 °F 6.8 °F 79% 29.94 in 2.0 mi SW 13.8 mph 23.0 mph N/A Snow Light Snow
5:26 PM 10.4 °F -6.0 °F 3.2 °F 73% 29.95 in 15.0 mi WSW 15.0 mph 21.9 mph N/A Snow Light Snow
6:00 PM 10.4 °F -4.8 °F -0.4 °F 62% 29.97 in 25.0 mi SW 12.7 mph 19.6 mph N/A Snow Light Snow
6:52 PM 10.4 °F -2.4 °F -0.4 °F 62% 30.00 in 25.0 mi SW 9.2 mph 20.7 mph N/A   Overcast
7:00 PM 10.4 °F -3.3 °F -0.4 °F 62% 29.99 in 25.0 mi SW 10.4 mph 19.6 mph N/A   Overcast
8:00 PM 10.4 °F -2.4 °F -0.4 °F 62% 30.02 in 25.0 mi SW 9.2 mph - N/A   Overcast
9:00 PM 10.4 °F -4.1 °F -0.4 °F 62% 30.03 in 25.0 mi WSW 11.5 mph 23.0 mph N/A   Overcast
10:00 PM 10.4 °F -1.5 °F -0.4 °F 62% 30.06 in 25.0 mi WSW 8.1 mph 17.3 mph N/A   Scattered Clouds
11:00 PM 8.6 °F -3.7 °F -0.4 °F 67% 30.09 in 25.0 mi WSW 8.1 mph - N/A   Partly Cloudy